User: anonymous   Login
Location: Asheville, NC
(35.6000°N, 82.5500°W)
Time: 23:49:15
(UTC-05:00)
Language:

YUBILEINY - Orbit

View from above orbital plane
View from above orbital plane
View from above satellite
View from above satellite

Ground track
Ground track

The orbit data is extracted from the following two-line orbital elements,

1 32953U 08025A   18019.62601884  .00000039  00000-0  21222-3 0  9995
2 32953  82.5036 105.0792 0019785 171.2096 188.9334 12.43081002438314
Epoch (UTC): 19 January 2018 15:01:28
Eccentricity: 0.0019785
inclination: 82.5036°
perigee height: 1478 km
apogee height: 1509 km
right ascension of ascending node: 105.0792°
argument of perigee: 171.2096°
revolutions per day: 12.43081002
mean anomaly at epoch: 188.9334°
orbit number at epoch: 43831

The dashed part of the orbit path shows where the satellite is in the earth's shadow,  

DLR